Mandan, ND

1:57 AM CDT on May 26, 2017 (GMT -0500)
Mandan

Weather History for KY19 - March, 2013

Change the Weather History Date:

Wednesday, March 20, 2013

  Actual Average (KBIS) Record (KBIS)
Temperature  
Mean Temperature 13 °F -  
Max Temperature 26 °F 41 °F 73 °F (1911)
Min Temperature 0 °F 22 °F -17 °F (1876)
Degree Days  
Heating Degree Days 52    
Moisture  
Dew Point 5 °F    
Average Humidity 75    
Maximum Humidity 100    
Minimum Humidity 54    
Precipitation  
Precipitation 0.00 in - - ()
Sea Level Pressure  
Sea Level Pressure 30.23 in    
Wind  
Wind Speed 8 mph (ESE)    
Max Wind Speed 17 mph    
Max Gust Speed 18 mph    
Visibility 10 miles    
Events      
Averages and records for this station are not official NWS values.
T = Trace of Precipitation, MM = Missing Value Source: NWS Daily Summary

Daily Weather History Graph

Daily Weather History Graph

Search for Another Location

Airport or City:

Trip Planner

Search our weather history database for the weather conditions in past years. The results will help you decide how hot, cold, wet, or windy it might be!

Date:

Astronomy

Mar. 20, 2013 Rise Set
Actual Time 7:45 AM CDT 7:56 PM CDT
Civil Twilight 7:15 AM CDT 8:26 PM CDT
Nautical Twilight 6:40 AM CDT 9:02 PM CDT
Astronomical Twilight 6:03 AM CDT 9:39 PM CDT
Moon 1:13 PM CDT (3/20) 3:47 AM CDT (3/20)
Length of Visible Light 13h 11m
Length of Day
12h 10m
First Quarter, 59% of the Moon is Illuminated
Mar 20
First Quarter
Mar 27
Full
Apr 2
Last Quarter
Apr 10
New
Apr 18
First Quarter

Hourly Weather History & Observations

Time (CDT) Temp. Windchill Dew Point Humidity Pressure Visibility Wind Dir Wind Speed Gust Speed Precip Events Conditions
12:15 AM 3.2 °F -11.3 °F -0.4 °F 85% 30.38 in 10.0 mi WNW 9.2 mph - N/A   Clear
12:35 AM 3.2 °F -11.3 °F -0.4 °F 85% 30.38 in 10.0 mi WNW 9.2 mph - N/A   Clear
12:55 AM 3.2 °F -10.3 °F -0.4 °F 85% 30.38 in 10.0 mi WNW 8.1 mph - N/A   Clear
1:15 AM 3.2 °F -11.3 °F -0.4 °F 85% 30.37 in 10.0 mi WNW 9.2 mph - N/A   Clear
1:35 AM 3.2 °F -11.3 °F -0.4 °F 85% 30.37 in 10.0 mi WNW 9.2 mph - N/A   Clear
1:55 AM 5.0 °F -9.1 °F -0.4 °F 78% 30.37 in 10.0 mi WNW 9.2 mph - N/A   Clear
2:15 AM 3.2 °F -9.1 °F -0.4 °F 85% 30.37 in 10.0 mi NW 6.9 mph - N/A   Clear
2:35 AM 5.0 °F -5.6 °F -0.4 °F 78% 30.37 in 10.0 mi NW 5.8 mph - N/A   Clear
2:55 AM 5.0 °F -5.6 °F -0.4 °F 78% 30.38 in 10.0 mi NW 5.8 mph - N/A   Clear
3:15 AM 1.4 °F -6.2 °F -0.4 °F 92% 30.37 in 10.0 mi WSW 3.5 mph - N/A   Clear
3:35 AM 1.4 °F -8.3 °F -0.4 °F 92% 30.37 in 10.0 mi WSW 4.6 mph - N/A   Clear
3:55 AM 1.4 °F -8.3 °F -0.4 °F 92% 30.36 in 10.0 mi West 4.6 mph - N/A   Clear
4:15 AM 1.4 °F -6.2 °F -0.4 °F 92% 30.36 in 10.0 mi West 3.5 mph - N/A   Clear
4:35 AM -0.4 °F -10.4 °F -0.4 °F 100% 30.35 in 10.0 mi West 4.6 mph - N/A   Clear
4:55 AM -0.4 °F -12.0 °F -2.2 °F 92% 30.35 in 10.0 mi West 5.8 mph - N/A   Clear
5:15 AM 1.4 °F -8.3 °F -2.2 °F 85% 30.35 in 10.0 mi West 4.6 mph - N/A   Clear
5:35 AM -0.4 °F -8.3 °F -2.2 °F 92% 30.35 in 10.0 mi West 3.5 mph - N/A   Clear
5:55 AM -0.4 °F -12.0 °F -2.2 °F 92% 30.35 in 10.0 mi West 5.8 mph - N/A   Clear
6:15 AM -0.4 °F -12.0 °F -2.2 °F 92% 30.34 in 10.0 mi WSW 5.8 mph - N/A   Clear
6:35 AM -0.4 °F -10.4 °F -2.2 °F 92% 30.34 in 10.0 mi WSW 4.6 mph - N/A   Clear
6:55 AM 1.4 °F -6.2 °F -0.4 °F 92% 30.33 in 10.0 mi West 3.5 mph - N/A   Clear
7:15 AM -0.4 °F -10.4 °F -2.2 °F 92% 30.33 in 10.0 mi West 4.6 mph - N/A   Clear
7:35 AM 1.4 °F - -0.4 °F 92% 30.33 in 10.0 mi Calm Calm - N/A   Clear
7:55 AM 1.4 °F - -0.4 °F 92% 30.32 in 10.0 mi Calm Calm - N/A   Clear
8:15 AM 1.4 °F - -0.4 °F 92% 30.32 in 10.0 mi Calm Calm - N/A   Clear
8:35 AM 3.2 °F - -0.4 °F 85% 30.32 in 10.0 mi Calm Calm - N/A   Clear
8:55 AM 5.0 °F - 1.4 °F 85% 30.32 in 10.0 mi Calm Calm - N/A   Clear
9:15 AM 6.8 °F - 1.4 °F 79% 30.31 in 10.0 mi Calm Calm - N/A   Clear
9:35 AM 8.6 °F - 3.2 °F 79% 30.30 in 10.0 mi Calm Calm - N/A   Clear
9:55 AM 10.4 °F 4.0 °F 5.0 °F 79% 30.30 in 10.0 mi South 3.5 mph - N/A   Clear
10:15 AM 10.4 °F 2.2 °F 5.0 °F 79% 30.30 in 10.0 mi South 4.6 mph - N/A   Clear
10:55 AM 14.0 °F 5.1 °F 5.0 °F 67% 30.29 in 10.0 mi East 5.8 mph - N/A   Clear
11:15 AM 15.8 °F 5.1 °F 6.8 °F 68% 30.28 in 10.0 mi ESE 8.1 mph - N/A   Clear
11:35 AM 15.8 °F 5.1 °F 5.0 °F 62% 30.27 in 10.0 mi ESE 8.1 mph - N/A   Clear
11:55 AM 15.8 °F 5.1 °F 6.8 °F 68% 30.27 in 10.0 mi ESE 8.1 mph - N/A   Clear
12:15 PM 17.6 °F 9.3 °F 6.8 °F 63% 30.27 in 10.0 mi SE 5.8 mph - N/A   Clear
12:35 PM 19.4 °F 9.5 °F 6.8 °F 58% 30.26 in 10.0 mi SE 8.1 mph - N/A   Clear
12:55 PM 19.4 °F 9.5 °F 6.8 °F 58% 30.24 in 10.0 mi SE 8.1 mph - N/A   Clear
1:15 PM 19.4 °F 8.6 °F 6.8 °F 58% 30.23 in 10.0 mi East 9.2 mph - N/A   Clear
1:35 PM 19.4 °F 9.5 °F 6.8 °F 58% 30.22 in 10.0 mi ESE 8.1 mph - N/A   Clear
1:55 PM 19.4 °F 10.4 °F 8.6 °F 63% 30.22 in 10.0 mi SSE 6.9 mph - N/A   Clear
2:15 PM 21.2 °F 10.9 °F 8.6 °F 58% 30.21 in 10.0 mi ESE 9.2 mph - N/A   Clear
2:35 PM 23.0 °F 13.9 °F 8.6 °F 54% 30.20 in 10.0 mi ESE 8.1 mph - N/A   Clear
2:55 PM 23.0 °F 13.9 °F 10.4 °F 59% 30.19 in 10.0 mi ESE 8.1 mph - N/A   Clear
3:15 PM 23.0 °F 14.7 °F 10.4 °F 59% 30.17 in 10.0 mi ESE 6.9 mph - N/A   Clear
3:35 PM 24.8 °F 16.9 °F 10.4 °F 54% 30.16 in 10.0 mi SE 6.9 mph - N/A   Clear
3:55 PM 24.8 °F 15.3 °F 10.4 °F 54% 30.15 in 10.0 mi ESE 9.2 mph - N/A   Clear
4:15 PM 24.8 °F 14.6 °F 12.2 °F 59% 30.14 in 10.0 mi East 10.4 mph - N/A   Clear
4:35 PM 26.6 °F 16.2 °F 14.0 °F 59% 30.13 in 10.0 mi ESE 11.5 mph - N/A   Clear
4:55 PM 24.8 °F 14.0 °F 10.4 °F 54% 30.13 in 10.0 mi ESE 11.5 mph - N/A   Clear
5:15 PM 26.6 °F 15.7 °F 12.2 °F 55% 30.12 in 10.0 mi ESE 12.7 mph - N/A   Clear
5:35 PM 26.6 °F 16.2 °F 12.2 °F 55% 30.12 in 10.0 mi East 11.5 mph - N/A   Clear
5:55 PM 24.8 °F 12.4 °F 12.2 °F 59% 30.11 in 10.0 mi East 15.0 mph - N/A   Clear
6:15 PM 24.8 °F 12.9 °F 12.2 °F 59% 30.11 in 10.0 mi East 13.8 mph - N/A   Clear
6:35 PM 23.0 °F 10.6 °F 10.4 °F 59% 30.11 in 10.0 mi East 13.8 mph 18.4 mph N/A   Clear
6:55 PM 21.2 °F 8.9 °F 10.4 °F 63% 30.10 in 10.0 mi East 12.7 mph - N/A   Clear
7:15 PM 19.4 °F 7.2 °F 10.4 °F 68% 30.10 in 10.0 mi East 11.5 mph - N/A   Clear
7:35 PM 19.4 °F 6.0 °F 10.4 °F 68% 30.10 in 10.0 mi East 13.8 mph - N/A   Clear
7:55 PM 17.6 °F 3.7 °F 8.6 °F 68% 30.09 in 10.0 mi East 13.8 mph - N/A   Clear
8:15 PM 17.6 °F 3.7 °F 10.4 °F 73% 30.09 in 10.0 mi East 13.8 mph - N/A   Clear
8:35 PM 15.8 °F -0.2 °F 8.6 °F 73% 30.08 in 10.0 mi East 17.3 mph - N/A   Clear
8:55 PM 15.8 °F 0.9 °F 8.6 °F 73% 30.08 in 10.0 mi East 15.0 mph - N/A   Clear
9:15 PM 14.0 °F -0.2 °F 8.6 °F 79% 30.08 in 10.0 mi East 12.7 mph - N/A   Clear
9:35 PM 14.0 °F -0.2 °F 8.6 °F 79% 30.08 in 10.0 mi East 12.7 mph - N/A   Clear
9:55 PM 14.0 °F -0.8 °F 6.8 °F 73% 30.08 in 10.0 mi East 13.8 mph - N/A   Scattered Clouds
10:15 PM 12.2 °F -3.7 °F 6.8 °F 79% 30.08 in 10.0 mi ESE 15.0 mph - N/A   Scattered Clouds
10:35 PM 12.2 °F -2.5 °F 6.8 °F 79% 30.07 in 10.0 mi ESE 12.7 mph - N/A   Clear
10:55 PM 10.4 °F -5.4 °F 6.8 °F 85% 30.06 in 10.0 mi East 13.8 mph - N/A   Clear
11:15 PM 10.4 °F -4.1 °F 6.8 °F 85% 30.06 in 10.0 mi ESE 11.5 mph - N/A   Partly Cloudy
11:35 PM 10.4 °F -5.4 °F 6.8 °F 85% 30.05 in 10.0 mi East 13.8 mph - N/A   Partly Cloudy
11:55 PM 10.4 °F -3.3 °F 6.8 °F 85% 30.05 in 10.0 mi ESE 10.4 mph - N/A   Clear